World > North America > United States > Utah

Uvada, Utah Regional Weather

Lat: 37.80N, Lon: 113.91W
Wx Zone: UTZ016
Warning NWS WEATHER ALERT - (More Info. Click Here) Warning
Feedback

Uvada, UT Regional Weather

Expires:202001211800;;298524
ASUS45 KSLC 211710
RWRUT 

UTAH REGIONAL WEATHER ROUNDUP
NATIONAL WEATHER SERVICE SALT LAKE CITY UT
1000 AM MST TUE JAN 21 2020


UTZ013>016-019>022-027-211800-

SOUTHERN UTAH
  
CITY           SKY/WX    TMP DP  RH WIND       PRES   REMARKS
BRYCE CANYON   LGT SNOW  28  24  85 CALM      30.08R FOG              
CEDAR CITY     LGT SNOW  32  32 100 CALM      30.07R FOG              
MILFORD        CLOUDY    35  33  92 S14       30.06R WCI  26          
ST GEORGE      CLOUDY    45  35  68 SE6       30.12R                  
HANKSVILLE     CLOUDY    30  28  93 CALM      30.17S                  
KANAB          CLOUDY    34  34 100 CALM      30.15R FOG              
BLANDING         N/A     32  32 100 N3        30.19F                  

$$

REGIONAL REPORTS     COLORADO/ARIZONA
  
CITY           SKY/WX    TMP DP  RH WIND       PRES   REMARKS
CRAIG, CO      CLOUDY    30  24  78 CALM      30.06F                  
GRAND JUNCTION LGT SNOW  29  25  85 NW7       30.12R VSB 3/4 WCI  22  
RIFLE, CO      CLOUDY    33  21  61 CALM      30.11F                  
MONTROSE, CO   CLOUDY    33  23  66 CALM      30.13F                  
CORTEZ, CO     CLOUDY    35  33  92 E3        30.13S                  
COLORADO CITY  LGT RAIN  41  39  93 S3        30.14R                  
PAGE, AZ       CLOUDY    36  30  79 CALM      30.12S                  
GRAND CANYON   LGT RAIN  36  35  96 SW10      30.10R FOG     WCI  28  
KINGMAN, AZ    CLOUDY    46  39  76 MISG      30.11R                  
FLAGSTAFF, AZ  CLOUDY    35  34  96 SW9       30.11S WCI  28          

$$

REGIONAL REPORTS    NEVADA/IDAHO/WYOMING
  
CITY           SKY/WX    TMP DP  RH WIND       PRES   REMARKS
LAS VEGAS, NV  PTSUNNY   55  27  34 NE6       30.08R                  
ELY, NY        PTSUNNY   35  27  72 CALM      30.04R                  
ELKO, NV         N/A     37  27  67 CALM      30.01R                  
POCATELLO, ID  PTSUNNY   31  24  75 E3        29.99S                  
BURLEY, ID       N/A     38  28  67 S8        29.96S WCI  32          
EVANSTON, WY   CLOUDY    29  23  78 S5        30.00F WCI  24          
ROCK SPRINGS,  PTSUNNY   20  15  81 SW6       30.02R WCI  12          
KEMMERER, WY     N/A     21  14  73 N3        30.00F                  

$$
  

SKY/WX - Weather  TMP - Temperature  DP - Dew Point  RH - Relative Humidity
WIND - Wind Direction/Speed PRES - Barometric Pressure VSB - Visibility
WCI - Wind Chill Index E13G22 Wind - East Wind 13 mph/Gusts of 22 mph